Details From VHHH - Hong Kong Intl
To RJAA - NARITA INTL
Flight Number -
Tags decoded
Created
Modified
Stats Distance 1,702 nm / 3,153 km
Max Altitude 0 ft / 0 m
Waypoints 10
Social Downloads 0
Likes 0
Share VATSIM

Download

Looking for another format? Having issues loading an existing format? Contact us
Advertisement - Login to hide

Notes

Requested: VHHH OCEAN V2 ELATO A1 APU G587 ROBIN R583 LEKOS G587 PABSO R583 BORDO Y291 GANEK Z29 GAKIA Y293 YULIA SYOYU ANGEL BINKSB RJAA Unmatched points: Y291 GANEK Z29 GAKIA Y293 YULIA SYOYU BINKSB

Route

VHHH OCEAN ELATO APU G587 PABSO R583 BORDO ANGEL RJAA

ID Type Via Altitude Latitude Longitude Leg Dist Tot Dist Heading (true) Name
O VHHH APT - 0 ft / 0 m 22.30899˚ 113.91461˚ - 0 nm - Hong Kong Intl
OCEAN FIX - 0 ft / 0 m 21.81194˚ 114.81333˚ 58 nm 58 nm 121° / 121° -
ELATO FIX - 0 ft / 0 m 22.33333˚ 117.50000˚ 152 nm 211 nm 78° / 79° -
APU VOR - 0 ft / 0 m 25.17694˚ 121.52222˚ 279 nm 490 nm 52° / 53° ANBU VOR-DME
ROBIN FIX G587 (AWY-LO) 0 ft / 0 m 25.41917˚ 122.20778˚ 39 nm 530 nm 69° / 69° -
LEKOS FIX G587 (AWY-LO) 0 ft / 0 m 25.50750˚ 122.48056˚ 15 nm 546 nm 70° / 70° -
PABSO FIX G587 (AWY-HI) 0 ft / 0 m 25.63911˚ 122.86603˚ 22 nm 568 nm 69° / 69° -
BORDO FIX R583 (AWY-LO) 0 ft / 0 m 26.02067˚ 123.99838˚ 65 nm 633 nm 69° / 70° -
ANGEL FIX - 0 ft / 0 m 34.89247˚ 140.69847˚ 1013 nm 1647 nm 54° / 63° -
O RJAA APT - 0 ft / 0 m 35.77655˚ 140.38277˚ 55 nm 1702 nm 344° / 344° NARITA INTL

Altitude Profile

Advertisement - Login to hide

Weather


0- 5 10 15 20 25 30 35+ Temperature / ° C

Clouds and Precipitation
Forecast for 2017-12-14 18:00 UTC. Updated 30 minutes ago

Ground ~20,000 ft ~40,000 ft Winds

VHHH

Details ICAO VHHH (HKG)
Name Hong Kong Intl
Region Hong Kong
Timezone Unknown (UTC+0.0)
Stats Elevation 28 ft / 9 m (AMSL)
Location 22.308995° 113.914610°
Runways 2
Magnetic Variation 2.822° W

METAR

VHHH 141330Z 12010KT 100V170 9999 FEW020 SCT035 21/15 Q1019 NOSIG

Decode

TAF

TAF VHHH 141100Z 1412/1518 08010KT 7000 FEW020 SCT035 TX21/1506Z TN17/1518Z TEMPO 1412/1424 VRB05KT BECMG 1500/1502 02010KT TEMPO 1503/1509 32010KT

Decode

Departure Runways

ID Width Length Bearing (true) Bearing (mag) Surface Threshold Offset Overrun Length
07L 197 ft / 60 m 12,457 ft / 3,797 m 70.79° 73.61° Asphalt 564 ft / 172 m 866 ft / 264 m
07R 197 ft / 60 m 12,458 ft / 3,797 m 70.79° 73.61° Asphalt 525 ft / 160 m 886 ft / 270 m
25L 197 ft / 60 m 12,458 ft / 3,797 m 250.80° 253.62° Asphalt 0 ft / 0 m 840 ft / 256 m
25R 197 ft / 60 m 12,457 ft / 3,797 m 250.80° 253.62° Asphalt 581 ft / 177 m 860 ft / 262 m

RJAA

Details ICAO RJAA (NRT)
Name NARITA INTL
Region Japan
Timezone Asia/Tokyo (UTC+9.0)
Stats Elevation 141 ft / 43 m (AMSL)
Location 35.776552° 140.382770°
Runways 2
Magnetic Variation 7.405° W

METAR

RJAA 141330Z 26002KT CAVOK M00/M03 Q1025 NOSIG

Decode

TAF

TAF RJAA 141107Z 1412/1518 36005KT 9999 FEW030= TAF RJBB 141108Z 1412/1518 04010KT 9999 FEW020 SCT040 BECMG 1512/1515 17006KT

Decode

Destination Runways

ID Width Length Bearing (true) Bearing (mag) Surface Threshold Offset Overrun Length
16L 196 ft / 60 m 7,162 ft / 2,183 m 149.61° 157.02° Asphalt 190 ft / 58 m 0 ft / 0 m
16R 196 ft / 60 m 13,142 ft / 4,006 m 149.61° 157.02° Asphalt 0 ft / 0 m 410 ft / 125 m
34L 196 ft / 60 m 13,142 ft / 4,006 m 329.62° 337.03° Asphalt 0 ft / 0 m 415 ft / 126 m
34R 196 ft / 60 m 7,162 ft / 2,183 m 329.62° 337.03° Asphalt 190 ft / 58 m 0 ft / 0 m

Approach Navaids

Runway Type Ident Frequency Range Bearing (true) Bearing (mag) Slope Elevation
16L Localiser ITM 110.70 MHz 18 nm / 33 km 149.62° 157.02° - 141 ft / 43 m (AMSL)
16L Glidescope ITM 110.70 MHz 10 nm / 19 km 149.62° 157.02° 3.00° 141 ft / 43 m (AMSL)
16L DME ITM 110.70 MHz 18 nm / 33 km - - - 145 ft / 44 m (AMSL)
16R Localiser IKF 111.50 MHz 18 nm / 33 km 149.63° 157.03° - 141 ft / 43 m (AMSL)
16R Glidescope IKF 111.50 MHz 10 nm / 19 km 149.62° 157.02° 3.00° 141 ft / 43 m (AMSL)
16R DME IKF 111.50 MHz 18 nm / 33 km - - - 145 ft / 44 m (AMSL)
34L Localiser IYQ 111.90 MHz 18 nm / 33 km 329.61° 337.01° - 141 ft / 43 m (AMSL)
34L Glidescope IYQ 111.90 MHz 10 nm / 19 km 329.62° 337.02° 3.00° 141 ft / 43 m (AMSL)
34L DME IYQ 111.90 MHz 18 nm / 33 km - - - 153 ft / 47 m (AMSL)
34R Localiser ITJ 110.90 MHz 18 nm / 33 km 329.62° 337.02° - 141 ft / 43 m (AMSL)
34R Glidescope ITJ 110.90 MHz 10 nm / 19 km 329.62° 337.02° 3.00° 141 ft / 43 m (AMSL)
34R DME ITJ 110.90 MHz 18 nm / 33 km - - - 148 ft / 45 m (AMSL)

Popular Alternatives